Location: Sungai Liu
(2.3667°N, 113.8667°E)
Time: 13:17:39
(UTC+00:00)

Cosmos 1833 Rocket - Pass Details

Date: 20 May 2022
Orbit: 832 x 840 km, 71.0° (Epoch: 06 July)

Event Time Altitude Azimuth Distance (km) Brightness Sun altitude
Rises 21:32:25 0° 186° (S) 3,379 5.6 -10.6°
Reaches altitude 10° 21:34:55 10° 180° (S) 2,443 4.9 -10.0°
Maximum altitude 21:40:21 52° 105° (ESE) 1,030 3.6 -8.7°
Drops below altitude 10° 21:45:45 10° 30° (NNE) 2,431 5.9 -7.5°
Sets 21:48:13 0° 25° (NNE) 3,362 6.6 -6.9°
